Miscellaneous Local Product
Issued by NWS Hastings, NE

Home | Current Version | Previous Version | Text Only | Print | Product List | Glossary Off
Versions: 1 2 3 4 5 6 7 8 9 10 11 12 13 14 15 16 17 18 19 20 21 22 23 24 25 26 27 28 29 30 31 32 33 34 35 36 37 38 39 40 41 42 43 44 45 46 47 48 49 50

000
AXUS43 KGID 270402
MISGRI

GID CWA HOURLY WEATHER ROUNDUP
NATIONAL WEATHER SERVICE HASTINGS NE
1100 PM CDT MON JUN 26 2017

NOTE: "FAIR" INDICATES FEW OR NO CLOUDS BELOW 12,000 FEET WITH NO
SIGNIFICANT WEATHER AND/OR OBSTRUCTIONS TO VISIBILITY.

...SOUTH CENTRAL NEBRASKA...

CITY           SKY/WX    TMP DP  RH WIND       PRES   REMARKS
GRAND ISLAND   PTCLDY    60  52  74 SE6       30.15R
HASTINGS       CLEAR     65  60  84 SE8       30.15R
KEARNEY        CLEAR     59  48  67 E8        30.15R
ORD            PTCLDY    59  46  62 E3        30.13R
YORK           CLOUDY    59  50  72 E7        30.15R
AURORA         CLOUDY    59  51  75 E6        30.15R
LEXINGTON      CLEAR     64  51  64 E9        30.13S
HOLDREGE       CLEAR     61  54  76 E9        30.13S
HEBRON         PTCLDY    62  60  96 CALM      30.14R

...NEBRASKA PANHANDLE...

CITY           SKY/WX    TMP DP  RH WIND       PRES   REMARKS
CHADRON        CLEAR     70  38  31 SE17      30.02S
ALLIANCE       CLEAR     62  39  42 SE12      30.09R
SCOTTSBLUFF    CLEAR     69  43  38 SE14      30.08R
SIDNEY         CLEAR     65  52  62 SE14      30.14R

...WESTERN AND NORTH CENTRAL NEBRASKA...

CITY           SKY/WX    TMP DP  RH WIND       PRES   REMARKS
VALENTINE      CLEAR     64  38  38 SE10      30.10S
AINSWORTH      CLEAR     57  43  59 SE8       30.12F
ONEILL         CLEAR     60  44  55 SE6       30.15R
BROKEN BOW     CLEAR     60  46  59 E6        30.14R
IMPERIAL       CLEAR     65  55  70 SE10      30.12R
NORTH PLATTE   CLEAR     56  50  80 E8        30.13R
MCCOOK         CLEAR     66  59  78 E8        30.12R

...EASTERN NEBRASKA...

CITY           SKY/WX    TMP DP  RH WIND       PRES   REMARKS
NORFOLK        CLEAR     57  44  62 E5        30.15R
SO SIOUX CITY  CLEAR     62  41  46 E5        30.14R
TEKAMAH        CLEAR     57  47  69 N6        30.14R
COLUMBUS       CLEAR     58  48  69 E6        30.15R
ALBION         CLEAR     56  44  62 E5        30.15S
OMAHA EPPLEY   PTCLDY    63  50  62 NW3       30.14R
OFFUTT AFB     CLEAR     63  51  63 NE5       30.13R
MILLARD        CLEAR     64  53  68 CALM      30.14R
LINCOLN        PTCLDY    64  51  62 NE6       30.14R
NEBRASKA CITY  CLEAR     64  62  94 S3        30.14R
BEATRICE       CLEAR     62  61  95 CALM      30.14R
FALLS CITY     CLEAR     62  59  90 CALM      30.13R

...NORTHERN KANSAS...

CITY           SKY/WX    TMP DP  RH WIND       PRES   REMARKS
GOODLAND       CLEAR     64  61  90 E7        30.12R
HILL CITY      CLEAR     67  59  75 E8        30.11R
NORTON         CLEAR     64  55  72 E6        30.11
PHILLIPSBURG   CLEAR     70  57  64 E10       30.11R
SMITH CENTER   CLOUDY    66  61  82 E12       30.12R
HAYS           CLEAR     68  61  78 E14       30.09R
RUSSELL        CLEAR     67  60  78 E15       30.08R
CONCORDIA      CLEAR     63  61  93 E6        30.11R
SALINA         CLEAR     69  62  78 E9        30.10R
TOPEKA         CLEAR     62  62 100 CALM      30.12R



USA.gov is the U.S. government's official web portal to all federal, state and local government web resources and services.